Regional Weather Roundup
Issued by NWS San Diego, CA

Home | Current Version | Previous Version | Text Only | Print | Product List | Glossary On
Versions: 1 2 3 4 5 6 7 8 9 10 11 12 13 14 15 16 17 18 19 20 21 22 23 24 25 26 27 28 29 30 31 32 33 34 35 36 37 38 39 40 41 42 43 44 45 46 47 48 49 50
000
ASUS46 KSGX 262210
RWRSGX

SAN DIEGO HOURLY WEATHER ROUNDUP
NATIONAL WEATHER SERVICE SAN DIEGO CA
200 PM PST MON JAN 26 2015

NOTE: "FAIR" INDICATES FEW OR NO CLOUDS BELOW 12,000 FEET WITH NO
SIGNIFICANT WEATHER AND/OR OBSTRUCTIONS TO VISIBILITY.

CAZ042-043-060-061-PZZ750-775-262300-

GREATER SAN DIEGO AREA

CITY           SKY/WX    TMP DP  RH WIND       PRES   REMARKS
LINDBERGH FLD  RAIN      63  51  65 SE8       30.04S
POINT LOMA       N/A     60  52  75 S12         N/A
NATIONAL CITY    N/A     64  51  61 CALM      30.04R
CHULA VISTA      N/A     62  54  73 CALM      29.97R
IMPERIAL BEACH LGT RAIN  65  49  56 E6        30.04R
BROWN FIELD    LGT RAIN  61  48  62 SE8       30.04R
MIRAMAR MCAS   RAIN      62  48  60 S10       30.03R
MONTGOMERY FLD LGT RAIN  62  49  62 SE7       30.04R

$$

NORTH SAN DIEGO COUNTY

CITY           SKY/WX    TMP DP  RH WIND       PRES   REMARKS
CAMP PENDLETON LGT RAIN  64  53  67 S13       30.03R
OCEANSIDE AP   CLOUDY    64  56  75 S10       30.02R
OCEANSIDE HBR    N/A     64  59  85 SE9       30.05R
VISTA            N/A     65  51  61 SE1       30.01R
CARLSBAD       CLOUDY    66  45  46 S12       30.03R
DEL MAR          N/A     64  53  67 CALM      30.04R
LA JOLLA SCRIP   N/A     62  55  77 CALM      30.00R
FALLBROOK        N/A     61  58  89 S7        30.04R
ESCONDIDO        N/A     64  51  63 SE5       30.05R
SAN MARCOS       N/A     65  48  53 S7        30.02R
POWAY            N/A     62  52  70 CALM      30.05R

$$

EAST SAN DIEGO COUNTY

CITY           SKY/WX    TMP DP  RH WIND       PRES   REMARKS
RAMONA         RAIN      57  49  74 S6        30.06R
SANTEE LAKES     N/A     64  51  63 CALM      30.04R
LA MESA          N/A     63  49  59 CALM      29.98R
JAMUL            N/A     59  49  68 CALM      30.03R
DESCANSO N       N/A     49  42  79 E8        29.91R
MT. LAGUNA OBS   N/A     40  39  94 SE6       29.67F
CAMPO            N/A     50  45  83 NE7       30.02F

$$

ORANGE COUNTY AND THE LOS ANGELES BASIN

CITY           SKY/WX    TMP DP  RH WIND       PRES   REMARKS
JOHN WAYNE AP  CLOUDY    72  45  37 SW14G28   29.99R
LAGUNA BEACH     N/A     68  52  57 S6        29.95R
LAKE FOREST FR   N/A     71  43  36 SE6       29.87S
SANTA ANA        N/A     77  42  28 CALM      29.93
HUNTINGTON BCH   N/A     72  47  40 SE7       30.01R
LOS ALAMITOS   PTSUNNY   71  43  36 S14       29.99R
FULLERTON      CLOUDY    75  34  22 S13G20    29.97S
LONG BEACH     CLOUDY    72  41  32 S7        29.99R
L.A. AP        CLOUDY    74  34  23 VRB7      29.97S
L.A. DOWNTOWN  CLOUDY    77  31  18 CALM      29.96F

$$

THE INLAND EMPIRE

CITY           SKY/WX    TMP DP  RH WIND       PRES   REMARKS
CORONA         CLOUDY    73  42  32 E14       29.99R
CHINO          CLOUDY    72  44  36 E16G24    30.00R
ONTARIO        CLOUDY    74  41  30 SE10      30.00R
SAN BERNARDINO CLOUDY    68  45  42 SE12      30.00F
RIVERSIDE AP   CLOUDY    70  46  42 E12       30.01R
RIV CYN CREST    N/A     68  57  67 SE9         N/A
MORENO VALLEY    N/A     64  54  71 SE6       29.21S
MARCH ARB      LGT RAIN  64  50  59 E13       30.02S
HORSETHIEF CYN   N/A     69  41  36 SE5       29.93F
PERRIS           N/A     63  52  67 E7          N/A
MENIFEE          N/A     66  53  63 SE8       30.10F
HEMET EAST       N/A     63  43  48 CALM      30.00F
FRENCH VALLEY  CLOUDY    63  50  63 E15G22    30.03R
TEMECULA         N/A     67  53  59 S5        29.98R

$$

SAN BERNARDINO AND RIVERSIDE COUNTY MOUNTAINS

CITY           SKY/WX    TMP DP  RH WIND       PRES   REMARKS
BIG BEAR AP    DRIZZLE   43  37  81 E7        30.15F
PINE COVE        N/A     47  40  77 NW1       29.94R

$$

SOUTHERN DESERT INCLUDING THE COACHELLA VALLEY

CITY           SKY/WX    TMP DP  RH WIND       PRES   REMARKS
PALM SPRINGS   LGT RAIN  65  51  60 SW3       30.09F
PALM DESERT      N/A     67  46  47 CALM      28.27S
THERMAL        CLOUDY    65  48  54 S8        30.06F
BLYTHE         CLOUDY    61  49  64 NE7       30.09F
IMPERIAL AP    LGT RAIN  58  56  93 SW10      30.08R FOG
EL CENTRO NAS  LGT RAIN  58  56  93 SW7       30.08S FOG
YUMA AZ        CLOUDY    64  51  62 NE12      30.06F
MEXICALI       DRIZZLE   59  54  82 S7        30.09

$$

UPPER DESERT

CITY           SKY/WX    TMP DP  RH WIND       PRES   REMARKS
VICTORVILLE AP CLOUDY    63  43  48 E12       30.07S
HESPERIA         N/A     59  46  60 SE13      30.16F
APPLE VALLEY     N/A     62  44  52 SE3       30.10F
PALMDALE       CLOUDY    60  34  37 N6        30.07F
LANCASTER      CLOUDY    61  35  37 NE9       30.06F
EDWARDS AFB    CLOUDY    61  45  56 NE16      30.04F
DAGGETT        CLOUDY    55  49  80 NE17      30.10S
29 PALMS N     LGT RAIN  55  48  77 CALM      30.17F
NEEDLES        CLOUDY    67  33  28 SE9       30.10R

$$

REGIONAL REPORTS

CITY           SKY/WX    TMP DP  RH WIND       PRES   REMARKS
SANTA BARBARA  CLOUDY    72  38  29 S6        29.94F
SANDBERG       CLOUDY    58  31  35 E12G22    30.10S
MT. WILSON       N/A     54  28  37 MISG        N/A
LAS VEGAS NV   PTSUNNY   69  30  23 S5        30.06F
PHOENIX AZ     CLOUDY    69  28  21 NW5       30.08F
TIJUANA        CLOUDY    63  41  45 E5        30.06S

$$

OFFSHORE ISLANDS

CITY           SKY/WX    TMP DP  RH WIND       PRES   REMARKS
CATALINA ARPT  LGT RAIN  62  38  40 S22G32    30.02S
SAN CLEMENTE I LGT RAIN  65  54  68 S20       29.97R
SAN NICOLAS IS CLOUDY    66  49  54 S6        29.97R

$$

MARINE AND OFFSHORE BUOY REPORTS

STATION/POSITION SKY/WX   TEMP    WIND        PRES    SWELL
                          AIR SEA DIR/SP/G            HT/PER/DIR
                          (F)     (DEG/KT/KT) (MB)    (FT/S/D)
TANNER BANKS               64 63  220/ 10/ 12 1014.8F   7/290/14
S CLEMENTE BASIN           64 63  220/  8/ 10 1015.3F   5/280/14
SAN NICOLAS IS.               63                N/A     5/280/13
SO. S. ROSA ISLA           63 62   CALM  /  2 1013.6S   7/16
W. S. BARBARA CH           62 60  140/  2/  4 1013.5F   7/290/16
S. MONICA BASIN            65 63   90/  8/  8 1015.0R   5/260/15
S PEDRO CHANNEL               62                N/A     3/260/15
DANA POINT                    62                N/A     2/260/13
CMP PENDLETON NS              62                N/A     3/250/13
OCEANSIDE OFFSHR              62                N/A     3/260/13
TORREY PINES OTR              62                N/A     3/270/14
LA JOLLA 1                 64 62  140/  5/ 10 1016.7F
MISSION BAY BUOY              62                N/A     3/270/15
SAN DIEGO BAY                 62              1017.3F
POINT LOMA SOUTH              63                N/A     3/280/14

$$




USA.gov is the U.S. government's official web portal to all federal, state and local government web resources and services.